Wolf Creek Pass, CO

3:54 AM MDT on September 24, 2017 (GMT -0600)
Wolf Creek Pass

Weather History for KCPW - March, 2013

Change the Weather History Date:

Tuesday, March 26, 2013

  Actual Average (KALS) Record (KALS)
Temperature  
Mean Temperature 21 °F -  
Max Temperature 30 °F 54 °F 73 °F (1971)
Min Temperature 12 °F 20 °F -2 °F (2016)
Degree Days  
Heating Degree Days 44    
Moisture  
Dew Point 6 °F    
Average Humidity 53    
Maximum Humidity 73    
Minimum Humidity 43    
Precipitation  
Precipitation 0.00 in - - ()
Sea Level Pressure  
Sea Level Pressure 30.14 in    
Wind  
Wind Speed 16 mph (SW)    
Max Wind Speed 31 mph    
Max Gust Speed 44 mph    
Visibility 10 miles    
Events      
Averages and records for this station are not official NWS values.
T = Trace of Precipitation, MM = Missing Value Source: NWS Daily Summary

Daily Weather History Graph

Daily Weather History Graph

Search for Another Location

Airport or City:

Trip Planner

Search our weather history database for the weather conditions in past years. The results will help you decide how hot, cold, wet, or windy it might be!

Date:

Astronomy

Mar. 26, 2013 Rise Set
Actual Time 7:01 AM MDT 7:24 PM MDT
Civil Twilight 6:35 AM MDT 7:50 PM MDT
Nautical Twilight 6:04 AM MDT 8:21 PM MDT
Astronomical Twilight 5:33 AM MDT 8:53 PM MDT
Moon 7:04 PM MDT (3/26) 6:19 AM MDT (3/26)
Length of Visible Light 13h 15m
Length of Day
12h 23m
Waxing Gibbous, 99% of the Moon is Illuminated
Mar 26
Waxing Gibbous
Mar 27
Full
Apr 2
Last Quarter
Apr 10
New
Apr 18
First Quarter

Hourly Weather History & Observations

Time (MDT) Temp. Windchill Dew Point Humidity Pressure Visibility Wind Dir Wind Speed Gust Speed Precip Events Conditions
12:16 AM 12.2 °F -2.5 °F -0.4 °F 57% 30.15 in 10.0 mi SW 12.7 mph - N/A   Clear
12:36 AM 12.2 °F -1.0 °F -0.4 °F 57% 30.15 in 10.0 mi SW 10.4 mph - N/A   Clear
12:56 AM 12.2 °F -1.0 °F -0.4 °F 57% 30.15 in 10.0 mi SW 10.4 mph - N/A   Scattered Clouds
1:16 AM 12.2 °F -1.8 °F -0.4 °F 57% 30.14 in 10.0 mi SW 11.5 mph - N/A   Mostly Cloudy
1:36 AM 12.2 °F -3.1 °F -0.4 °F 57% 30.14 in 10.0 mi SW 13.8 mph - N/A   Overcast
1:56 AM 12.2 °F -3.1 °F -0.4 °F 57% 30.14 in 10.0 mi SW 13.8 mph 17.3 mph N/A   Overcast
2:16 AM 12.2 °F -1.8 °F -0.4 °F 57% 30.13 in 10.0 mi SW 11.5 mph 19.6 mph N/A   Mostly Cloudy
2:36 AM 12.2 °F -4.3 °F -0.4 °F 57% 30.14 in 10.0 mi SW 16.1 mph - N/A   Mostly Cloudy
2:56 AM 12.2 °F -3.1 °F -0.4 °F 57% 30.13 in 10.0 mi SW 13.8 mph 20.7 mph N/A   Scattered Clouds
3:16 AM 12.2 °F -3.7 °F -0.4 °F 57% 30.14 in 10.0 mi SW 15.0 mph 21.9 mph N/A   Mostly Cloudy
3:36 AM 12.2 °F -3.1 °F -0.4 °F 57% 30.14 in 10.0 mi SW 13.8 mph 20.7 mph N/A   Mostly Cloudy
3:56 AM 14.0 °F -2.5 °F 1.4 °F 57% 30.14 in 10.0 mi SW 17.3 mph 20.7 mph N/A   Overcast
4:16 AM 12.2 °F -4.8 °F 1.4 °F 62% 30.13 in 10.0 mi SW 17.3 mph - N/A   Mostly Cloudy
4:36 AM 12.2 °F -4.3 °F 1.4 °F 62% 30.13 in 10.0 mi SW 16.1 mph 20.7 mph N/A   Scattered Clouds
4:56 AM 12.2 °F -3.7 °F 1.4 °F 62% 30.13 in 10.0 mi SW 15.0 mph 18.4 mph N/A   Scattered Clouds
5:16 AM 12.2 °F -6.7 °F 3.2 °F 67% 30.13 in 10.0 mi SW 21.9 mph - N/A   Clear
5:36 AM 12.2 °F -6.7 °F 3.2 °F 67% 30.13 in 10.0 mi SW 21.9 mph - N/A   Clear
5:56 AM 12.2 °F -6.3 °F 3.2 °F 67% 30.14 in 10.0 mi SW 20.7 mph 26.5 mph N/A   Scattered Clouds
6:36 AM 12.2 °F -4.3 °F 5.0 °F 73% 30.14 in 10.0 mi SSW 16.1 mph - N/A   Clear
6:56 AM 12.2 °F -4.3 °F 5.0 °F 73% 30.14 in 10.0 mi SW 16.1 mph - N/A   Clear
7:16 AM 12.2 °F -4.8 °F 5.0 °F 73% 30.15 in 10.0 mi SW 17.3 mph - N/A   Clear
7:36 AM 12.2 °F -4.8 °F 5.0 °F 73% 30.15 in 10.0 mi SW 17.3 mph - N/A   Scattered Clouds
7:56 AM 14.0 °F -2.5 °F 5.0 °F 67% 30.16 in 10.0 mi SW 17.3 mph - N/A   Scattered Clouds
8:16 AM 15.8 °F -0.2 °F 6.8 °F 68% 30.17 in 10.0 mi SW 17.3 mph - N/A   Clear
8:36 AM 17.6 °F 3.2 °F 8.6 °F 68% 30.16 in 10.0 mi SW 15.0 mph - N/A   Clear
8:56 AM 17.6 °F 4.3 °F 6.8 °F 63% 30.17 in 10.0 mi SW 12.7 mph - N/A   Clear
9:16 AM 17.6 °F 3.7 °F 6.8 °F 63% 30.17 in 10.0 mi SW 13.8 mph 19.6 mph N/A   Clear
9:36 AM 19.4 °F 4.1 °F 6.8 °F 58% 30.17 in 10.0 mi SW 18.4 mph 24.2 mph N/A   Clear
9:56 AM 21.2 °F 6.4 °F 8.6 °F 58% 30.17 in 10.0 mi SSW 18.4 mph 27.6 mph N/A   Clear
10:16 AM 21.2 °F 8.3 °F 8.6 °F 58% 30.17 in 10.0 mi SW 13.8 mph 27.6 mph N/A   Clear
10:36 AM 24.8 °F 14.0 °F 8.6 °F 50% 30.17 in 10.0 mi SW 11.5 mph 20.7 mph N/A   Clear
10:56 AM 24.8 °F 15.3 °F 8.6 °F 50% 30.17 in 10.0 mi SSW 9.2 mph 25.3 mph N/A   Clear
11:16 AM 26.6 °F 15.7 °F 8.6 °F 47% 30.17 in 10.0 mi SSW 12.7 mph 23.0 mph N/A   Clear
11:36 AM 26.6 °F 16.8 °F 8.6 °F 47% 30.17 in 10.0 mi SW 10.4 mph 25.3 mph N/A   Clear
11:56 AM 26.6 °F 13.8 °F 10.4 °F 51% 30.17 in 10.0 mi SSW 17.3 mph 27.6 mph N/A   Clear
12:16 PM 28.4 °F 16.2 °F 10.4 °F 47% 30.17 in 10.0 mi SW 17.3 mph 26.5 mph N/A   Clear
12:36 PM 28.4 °F 17.5 °F 10.4 °F 47% 30.17 in 10.0 mi SW 13.8 mph 28.8 mph N/A   Clear
12:56 PM 30.2 °F 19.3 °F 10.4 °F 44% 30.17 in 10.0 mi SW 15.0 mph 27.6 mph N/A   Clear
1:16 PM 28.4 °F 15.8 °F 10.4 °F 47% 30.16 in 10.0 mi SSW 18.4 mph 29.9 mph N/A   Scattered Clouds
1:36 PM 26.6 °F 14.3 °F 10.4 °F 51% 30.16 in 10.0 mi SW 16.1 mph 33.4 mph N/A   Mostly Cloudy
1:56 PM 26.6 °F 11.1 °F 10.4 °F 51% 30.15 in 10.0 mi SW 26.5 mph 36.8 mph N/A   Overcast
2:16 PM 26.6 °F 13.1 °F 10.4 °F 51% 30.15 in 10.0 mi WSW 19.6 mph 33.4 mph N/A   Overcast
2:36 PM 28.4 °F 15.8 °F 10.4 °F 47% 30.14 in 10.0 mi SW 18.4 mph 33.4 mph N/A   Scattered Clouds
2:56 PM 28.4 °F 13.5 °F 10.4 °F 47% 30.14 in 10.0 mi SW 26.5 mph 36.8 mph N/A   Scattered Clouds
3:16 PM 30.2 °F 14.9 °F 10.4 °F 44% 30.13 in 10.0 mi SW 31.1 mph 43.7 mph N/A   Mostly Cloudy
3:36 PM 30.2 °F 17.8 °F 10.4 °F 44% 30.13 in 10.0 mi SW 19.6 mph 39.1 mph N/A   Scattered Clouds
3:56 PM 30.2 °F 16.2 °F 10.4 °F 44% 30.13 in 10.0 mi SSW 25.3 mph 32.2 mph N/A   Scattered Clouds
4:16 PM 28.4 °F 14.7 °F 10.4 °F 47% 30.13 in 10.0 mi SW 21.9 mph 34.5 mph N/A   Mostly Cloudy
4:36 PM 28.4 °F 14.1 °F 10.4 °F 47% 30.12 in 10.0 mi SSW 24.2 mph 36.8 mph N/A   Overcast
4:56 PM 28.4 °F 15.8 °F 8.6 °F 43% 30.12 in 10.0 mi WSW 18.4 mph 39.1 mph N/A   Overcast
5:16 PM 28.4 °F 15.4 °F 8.6 °F 43% 30.12 in 10.0 mi SW 19.6 mph 29.9 mph N/A   Overcast
5:36 PM 28.4 °F 16.2 °F 8.6 °F 43% 30.12 in 10.0 mi SW 17.3 mph 39.1 mph N/A   Mostly Cloudy
5:56 PM 28.4 °F 17.5 °F 8.6 °F 43% 30.12 in 10.0 mi SW 13.8 mph 33.4 mph N/A   Mostly Cloudy
6:16 PM 26.6 °F 12.7 °F 8.6 °F 47% 30.12 in 10.0 mi SSW 20.7 mph 36.8 mph N/A   Overcast
6:36 PM 26.6 °F 13.1 °F 8.6 °F 47% 30.12 in 10.0 mi SSW 19.6 mph 31.1 mph N/A   Overcast
6:56 PM 26.6 °F 13.8 °F 8.6 °F 47% 30.13 in 10.0 mi SW 17.3 mph 29.9 mph N/A   Overcast
7:16 PM 26.6 °F 13.4 °F 6.8 °F 43% 30.13 in 10.0 mi SSW 18.4 mph 33.4 mph N/A   Mostly Cloudy
7:36 PM 24.8 °F 10.7 °F 6.8 °F 46% 30.13 in 10.0 mi SW 19.6 mph 28.8 mph N/A   Overcast
7:56 PM 24.8 °F 10.0 °F 5.0 °F 43% 30.13 in 10.0 mi SW 21.9 mph 34.5 mph N/A   Overcast
8:16 PM 24.8 °F 10.0 °F 6.8 °F 46% 30.12 in 10.0 mi SW 21.9 mph 32.2 mph N/A   Mostly Cloudy
8:36 PM 24.8 °F 10.0 °F 5.0 °F 43% 30.13 in 10.0 mi SW 21.9 mph 35.7 mph N/A   Mostly Cloudy
8:56 PM 24.8 °F 9.6 °F 5.0 °F 43% 30.14 in 10.0 mi SW 23.0 mph 38.0 mph N/A   Overcast
9:16 PM 24.8 °F 11.1 °F 5.0 °F 43% 30.14 in 10.0 mi SW 18.4 mph 31.1 mph N/A   Overcast
9:36 PM 24.8 °F 12.9 °F 5.0 °F 43% 30.14 in 10.0 mi SW 13.8 mph 27.6 mph N/A   Overcast
9:56 PM 23.0 °F 10.6 °F 6.8 °F 50% 30.14 in 10.0 mi SW 13.8 mph 24.2 mph N/A   Mostly Cloudy
10:16 PM 24.8 °F 12.4 °F 6.8 °F 46% 30.14 in 10.0 mi SW 15.0 mph 24.2 mph N/A   Overcast
10:36 PM 24.8 °F 11.1 °F 6.8 °F 46% 30.14 in 10.0 mi SW 18.4 mph 24.2 mph N/A   Overcast
10:56 PM 24.8 °F 13.4 °F 6.8 °F 46% 30.15 in 10.0 mi WSW 12.7 mph 21.9 mph N/A   Overcast
11:16 PM 24.8 °F 8.7 °F 8.6 °F 50% 30.14 in 10.0 mi WSW 26.5 mph 36.8 mph N/A   Overcast
11:36 PM 23.0 °F 9.2 °F 12.2 °F 63% 30.14 in 10.0 mi WSW 17.3 mph 36.8 mph N/A   Overcast
11:56 PM 24.8 °F 11.1 °F 12.2 °F 59% 30.14 in 10.0 mi SW 18.4 mph 31.1 mph N/A   Overcast